Home   Weather   Vaughan   Past weeks

Flag for Canada Past Weather in Vaughan, Ontario, Canada — Yesterday and Last 2 Weeks

Now
73 °F

Passing clouds.


Feels Like: 75 °F
Forecast: 66 / 81 °F
Wind: 3 mph from West

Location: Toronto Buttonville

Current Time: Aug 31, 2016 at 2:30:26 AM

Latest Report: Aug 31, 2016 at 2:00 AM


Visibility: 15 mi

Pressure: 29.97 "Hg

Humidity: 74%

Dew Point: 64 °F

Location of VaughanLocation

Past Weather in Vaughan — Graph

°F

Vaughan Temperature Yesterday

Maximum temperature yesterday: 86 °F (at 2:00 PM)
Minimum temperature yesterday: 59 °F (at 5:00 AM)
Average temperature yesterday: 73 °F

High & Low Weather Summary for the Past Weeks

 TemperatureHumidityPressure
High86 °F (Aug 20, 1:00 PM)100% (Aug 16, 4:00 AM)30.27 "Hg (Aug 16, 4:00 AM)
Low54 °F (Aug 22, 6:00 AM)36% (Aug 22, 3:00 PM)29.57 "Hg (Aug 21, 5:00 AM)
Average73 °F70%30.03 "Hg
* Reported Aug 16 1:00 AM — Aug 31 1:00 AM, Vaughan, Weather by CustomWeather, © 2016

Note: Actual official high and low records may vary slightly from our data, if they occured in-between our weather recording intervals... More about our weather records

Advertising

Vaughan Weather History for the Previous 24 Hours

Scroll right to see more
 ConditionsComfort  
Time TempWeatherWind HumidityBarometerVisibility
1:00 AM
Wed, Aug 31
70 °FPassing clouds.No wind78%29.97 "Hg15 mi
12:00 AM70 °FPassing clouds.No wind78%29.98 "Hg15 mi
11:00 PM
Tue, Aug 30
68 °FPassing clouds.No wind83%30.00 "Hg15 mi
10:00 PM70 °FPartly cloudy.3 mph78%30.01 "Hg15 mi
9:00 PM72 °FPassing clouds.3 mph73%30.01 "Hg15 mi
8:00 PM73 °FPartly sunny.7 mph69%30.01 "Hg15 mi
7:00 PM82 °FBroken clouds.5 mph55%30.02 "Hg15 mi
6:00 PM84 °FBroken clouds.7 mph51%30.02 "Hg15 mi
5:00 PM84 °FBroken clouds.9 mph48%30.02 "Hg15 mi
4:00 PM84 °FBroken clouds.14 mph48%30.03 "Hg15 mi
3:00 PM84 °FScattered clouds.9 mph45%30.05 "Hg15 mi
2:00 PM86 °FScattered clouds.3 mph38%30.07 "Hg15 mi
1:00 PM84 °FPassing clouds.12 mph40%30.10 "Hg15 mi
12:00 PM82 °FPassing clouds.7 mph45%30.11 "Hg15 mi
11:00 AM79 °FPassing clouds.6 mph48%30.13 "Hg15 mi
10:00 AM75 °FPassing clouds.7 mph57%30.14 "Hg15 mi
9:00 AM72 °FPassing clouds.2 mph69%30.16 "Hg15 mi
8:00 AM66 °FPassing clouds.No wind78%30.16 "Hg15 mi
7:00 AM61 °FPassing clouds.No wind83%30.17 "Hg15 mi
6:00 AM61 °FPassing clouds.No wind83%30.16 "Hg15 mi
5:00 AM59 °FClear.2 mph88%30.17 "Hg15 mi
4:00 AM61 °FPassing clouds.2 mph83%30.17 "Hg15 mi
3:00 AM63 °FPassing clouds.2 mph83%30.18 "Hg15 mi
2:00 AM63 °FClear.2 mph77%30.19 "Hg15 mi
Weather by CustomWeather, © 2016

See weather overviewHow to use our weather pages